Location: Ash Swamp
(41.5170°N, 74.6157°W)
Time: 01:25:35
(UTC+00:00)

Cosmos 1470 Rocket - Pass Details

Date: 14 July 2020
Orbit: 603 x 635 km, 82.5° (Epoch: 14 August)

Event Time Altitude Azimuth Distance (km) Brightness Sun altitude
Exits shadow 06:08:17 49° 297° (WNW) 817 4.1 -25.2°
Drops below altitude 10° 06:12:21 10° 357° (N) 2,028 7.1 -25.0°
Sets 06:14:40 0° 3° (N) 2,940 8.3 -24.8°
